period_start,C,m1,H,J0,J1,J2,J3,J4,J5,JA,JB,JC,JD,JJ,JK,JN,#
2014-04-22 00:00:00,0.15,1.61,0.00,22.34,28.12,30.72,5.95,31.13,993.73,2034.98,2798.45,2874.17,3121.69,349.89,317.29,10.82,0000 0000 0000 0000 000000
2014-04-22 00:01:01,0.19,1.61,0.00,22.34,28.12,30.69,5.88,31.38,993.73,2034.99,2798.16,2874.06,3121.30,349.28,316.60,10.82,0000 0000 0000 0000 000000
2014-04-22 00:02:01,0.12,1.61,0.00,22.35,28.12,30.70,5.91,31.33,993.71,2034.99,2798.06,2874.01,3121.11,350.39,317.49,10.83,0000 0000 0000 0000 000000
2014-04-22 00:03:01,0.05,1.61,0.00,22.35,28.12,30.73,6.06,31.33,993.70,2034.98,2797.93,2873.98,3121.04,350.97,318.20,10.83,0000 0000 0000 0000 000000
2014-04-22 00:04:02,0.03,1.61,0.00,22.35,28.12,30.74,5.98,31.17,993.69,2034.97,2797.51,2873.83,3120.98,349.60,316.99,10.84,0000 0000 0000 0000 000000
2014-04-22 00:05:02,0.10,1.61,0.00,22.35,28.12,30.72,5.90,31.13,993.70,2034.95,2797.19,2873.44,3120.74,350.07,317.43,10.85,0000 0000 0000 0000 000000
2014-04-22 00:06:02,0.20,1.61,0.00,22.34,28.12,30.73,5.98,31.17,993.69,2034.96,2797.05,2873.18,3120.34,350.22,317.56,10.85,0000 0000 0000 0000 000000
2014-04-22 00:07:03,0.15,1.61,0.00,22.34,28.12,30.72,5.96,31.13,993.70,2034.96,2796.85,2873.07,3120.12,350.15,317.50,10.86,0000 0000 0000 0000 000000
2014-04-22 00:08:03,0.08,1.61,0.00,22.34,28.12,30.74,5.94,31.08,993.68,2034.97,2796.38,2873.02,3120.03,350.71,318.01,10.86,0000 0000 0000 0000 000000
2014-04-22 00:09:03,0.09,1.61,0.00,22.34,28.12,30.77,5.92,31.13,993.70,2034.97,2796.14,2872.99,3120.00,350.32,317.84,10.87,0000 0000 0000 0000 000000
2014-04-22 00:10:03,0.05,1.61,0.00,22.34,28.12,30.75,5.93,31.21,993.68,2034.96,2796.03,2872.69,3119.78,349.47,316.78,10.88,0000 0000 0000 0000 000000
2014-04-22 00:11:03,0.16,1.62,0.00,22.34,28.12,30.72,5.97,31.04,993.67,2034.96,2795.69,2872.30,3119.38,351.14,318.41,10.88,0000 0000 0000 0000 000000
2014-04-22 00:12:04,0.22,1.62,0.00,22.34,28.12,30.78,5.98,31.25,993.68,2034.95,2795.27,2872.12,3119.16,350.20,317.54,10.89,0000 0000 0000 0000 000000
2014-04-22 00:13:04,0.10,1.62,0.00,22.33,28.12,30.75,5.98,31.21,993.69,2034.95,2795.08,2872.04,3119.06,350.52,317.98,10.89,0000 0000 0000 0000 000000
2014-04-22 00:14:04,0.08,1.62,0.00,22.32,28.12,30.75,6.02,31.17,993.69,2034.95,2794.86,2872.00,3118.97,350.54,317.89,10.90,0000 0000 0000 0000 000000
2014-04-22 00:15:04,0.06,1.62,0.00,22.32,28.12,30.79,5.92,31.29,993.68,2034.96,2794.40,2871.88,3118.74,349.91,317.31,10.90,0000 0000 0000 0000 000000
2014-04-22 00:16:04,0.15,1.62,0.00,22.32,28.12,30.78,5.97,31.25,993.70,2034.97,2794.15,2871.61,3118.42,349.08,316.85,10.91,0000 0000 0000 0000 000000
2014-04-22 00:17:04,0.18,1.62,0.00,22.32,28.12,30.76,6.00,31.25,993.67,2034.99,2794.05,2871.25,3118.17,350.05,317.60,10.92,0000 0000 0000 0000 000000
2014-04-22 00:18:05,0.14,1.62,0.00,22.33,28.12,30.76,5.94,31.08,993.67,2034.98,2793.69,2871.09,3118.06,350.32,318.13,10.92,0000 0000 0000 0000 000000
2014-04-22 00:19:05,0.11,1.62,0.00,22.34,28.12,30.79,5.92,31.13,993.68,2034.96,2793.26,2871.00,3117.89,350.64,317.94,10.93,0000 0000 0000 0000 000000
2014-04-22 00:20:05,0.10,1.62,0.00,22.35,28.12,30.75,5.92,31.13,993.68,2034.95,2793.09,2870.70,3117.42,350.07,317.32,10.93,0000 0000 0000 0000 000000
2014-04-22 00:21:05,0.20,1.62,0.00,22.37,28.12,30.77,5.97,31.46,993.67,2034.97,2792.90,2870.32,3117.15,350.12,317.52,10.94,0000 0000 0000 0000 000000
2014-04-22 00:22:06,0.17,1.62,0.00,22.38,28.12,30.75,5.87,31.29,993.68,2034.98,2792.50,2870.12,3117.05,349.35,317.03,10.95,0000 0000 0000 0000 000000
2014-04-22 00:23:06,0.13,1.63,0.00,22.39,28.12,30.73,5.95,31.08,993.68,2034.99,2792.19,2870.04,3117.02,350.19,317.19,10.95,0000 0000 0000 0000 000000
2014-04-22 00:24:06,0.07,1.63,0.00,22.41,28.12,30.72,5.99,31.25,993.67,2034.99,2792.07,2870.01,3116.99,350.11,317.24,10.96,0000 0000 0000 0000 000000
2014-04-22 00:25:06,0.02,1.63,0.00,22.42,28.12,30.70,5.78,31.33,993.67,2034.99,2791.99,2869.98,3116.86,349.31,316.83,10.96,0000 0000 0000 0000 000000
2014-04-22 00:26:06,0.03,1.63,0.00,22.42,28.12,30.72,5.85,31.08,993.67,2034.98,2791.59,2869.72,3116.41,350.46,317.62,10.97,0000 0000 0000 0000 000000
2014-04-22 00:27:06,0.25,1.63,0.00,22.40,28.12,30.76,5.99,31.29,993.68,2034.99,2791.21,2869.30,3116.14,349.90,317.21,10.97,0000 0000 0000 0000 000000
2014-04-22 00:28:07,0.19,1.63,0.00,22.40,28.12,30.80,5.83,31.21,993.68,2034.99,2790.98,2869.11,3115.99,350.21,317.50,10.98,0000 0000 0000 0000 000000
2014-04-22 00:29:07,0.08,1.63,0.00,22.39,28.12,30.78,5.88,30.96,993.67,2034.98,2790.45,2869.00,3115.52,349.29,316.65,10.99,0000 0000 0000 0000 000000
2014-04-22 00:30:07,0.20,1.63,0.00,22.39,28.12,30.76,5.76,31.38,993.67,2034.98,2790.16,2868.59,3115.19,349.10,316.48,10.99,0000 0000 0000 0000 000000
2014-04-22 00:31:07,0.22,1.63,0.00,22.39,28.12,30.76,5.89,31.63,993.68,2034.96,2789.85,2868.23,3115.07,348.46,315.91,11.00,0000 0000 0000 0000 000000
2014-04-22 00:32:08,0.14,1.63,0.00,22.40,28.13,30.79,5.92,31.25,993.67,2034.94,2789.38,2868.08,3114.95,350.23,317.51,11.00,0000 0000 0000 0000 000000
2014-04-22 00:33:08,0.10,1.63,0.00,22.39,28.13,30.78,5.71,31.50,993.67,2034.95,2789.15,2868.02,3114.54,348.02,315.51,11.01,0000 0000 0000 0000 000000
2014-04-22 00:34:08,0.15,1.63,0.00,22.39,28.13,30.78,5.83,31.21,993.67,2034.97,2788.78,2867.80,3114.21,349.88,317.26,11.02,0000 0000 0000 0000 000000
2014-04-22 00:35:08,0.20,1.64,0.00,22.38,28.13,30.75,5.98,31.42,993.67,2034.97,2788.34,2867.38,3114.07,350.15,317.20,11.02,0000 0000 0000 0000 000000
2014-04-22 00:36:08,0.19,1.64,0.00,22.37,28.13,30.80,5.88,31.29,993.67,2034.96,2788.12,2867.14,3113.99,349.63,317.05,11.03,0000 0000 0000 0000 000000
2014-04-22 00:37:09,0.09,1.64,0.00,22.37,28.13,30.80,5.88,31.25,993.67,2034.94,2788.02,2867.05,3113.68,349.56,317.11,11.03,0000 0000 0000 0000 000000
2014-04-22 00:38:09,0.05,1.64,0.00,22.36,28.13,30.81,5.83,31.29,993.67,2034.92,2787.81,2867.00,3113.31,349.60,316.97,11.04,0000 0000 0000 0000 000000
2014-04-22 00:39:09,0.08,1.64,0.00,22.35,28.13,30.77,5.99,31.25,993.67,2034.93,2787.34,2866.97,3113.11,350.73,318.01,11.04,0000 0000 0000 0000 000000
2014-04-22 00:40:09,0.13,1.64,0.00,22.35,28.13,30.76,6.08,31.25,993.67,2034.90,2787.12,2866.68,3113.04,350.03,317.03,11.05,0000 0000 0000 0000 000000
2014-04-22 00:41:10,0.09,1.64,0.00,22.34,28.13,30.78,5.94,31.17,993.67,2034.90,2786.92,2866.31,3112.95,350.24,317.57,11.06,0000 0000 0000 0000 000000
2014-04-22 00:42:10,0.16,1.64,0.00,22.34,28.13,30.78,5.91,31.17,993.66,2034.83,2786.43,2866.11,3112.58,349.84,317.40,11.06,0000 0000 0000 0000 000000
2014-04-22 00:43:10,0.13,1.64,0.00,22.34,28.13,30.77,5.85,31.21,993.67,2034.85,2786.16,2866.04,3112.24,350.41,317.85,11.07,0000 0000 0000 0000 000000
2014-04-22 00:44:10,0.12,1.64,0.00,22.35,28.13,30.80,5.90,31.42,993.67,2034.88,2786.03,2865.99,3112.08,349.08,316.31,11.07,0000 0000 0000 0000 000000
2014-04-22 00:45:11,0.07,1.64,0.00,22.34,28.13,30.80,6.02,31.25,993.65,2034.89,2785.89,2865.88,3112.03,349.23,316.66,11.08,0000 0000 0000 0000 000000
2014-04-22 00:46:11,0.06,1.64,0.00,22.35,28.13,30.78,5.95,31.17,993.64,2034.90,2785.46,2865.62,3111.99,350.12,317.37,11.09,0000 0000 0000 0000 000000
2014-04-22 00:47:11,0.18,1.64,0.00,22.37,28.13,30.78,5.95,31.25,993.58,2034.90,2785.21,2865.34,3111.94,350.26,317.37,11.09,0000 0000 0000 0000 000000
2014-04-22 00:48:11,0.10,1.64,0.00,22.37,28.12,30.77,5.92,31.33,993.57,2034.91,2785.07,2865.14,3111.70,349.63,317.20,11.10,0000 0000 0000 0000 000000
2014-04-22 00:49:11,0.12,1.65,0.00,22.38,28.12,30.82,5.91,31.42,993.53,2034.89,2784.99,2865.05,3111.31,349.85,317.14,11.10,0000 0000 0000 0000 000000
2014-04-22 00:50:12,0.07,1.65,0.00,22.38,28.13,30.78,5.97,31.25,993.51,2034.89,2784.84,2865.01,3111.11,349.10,316.45,11.11,0000 0000 0000 0000 000000
2014-04-22 00:51:12,0.06,1.65,0.00,22.37,28.12,30.76,5.93,31.13,993.36,2034.89,2784.46,2865.00,3111.04,349.93,317.17,11.11,0000 0000 0000 0000 000000
2014-04-22 00:52:12,0.07,1.65,0.00,22.37,28.12,30.79,5.86,31.25,993.36,2034.87,2784.18,2864.98,3111.01,349.69,317.05,11.12,0000 0000 0000 0000 000000
2014-04-22 00:53:13,0.03,1.65,0.00,22.37,28.13,30.79,6.00,31.33,993.27,2034.89,2784.06,2864.95,3111.00,350.88,318.01,11.13,0000 0000 0000 0000 000000
2014-04-22 00:54:13,0.06,1.65,0.00,22.37,28.12,30.79,5.98,31.29,993.23,2034.91,2784.02,2864.70,3110.96,350.31,317.47,11.13,0000 0000 0000 0000 000000
2014-04-22 00:55:13,0.10,1.65,0.00,22.37,28.12,30.80,6.00,31.33,993.19,2034.92,2783.96,2864.33,3110.64,350.21,317.59,11.14,0000 0000 0000 0000 000000
2014-04-22 00:56:13,0.16,1.65,0.00,22.37,28.12,30.78,6.11,31.29,993.21,2034.94,2783.57,2864.13,3110.29,350.28,317.64,11.14,0000 0000 0000 0000 000000
2014-04-22 00:57:14,0.17,1.65,0.00,22.37,28.12,30.80,5.98,31.25,993.19,2034.96,2783.25,2864.04,3110.13,349.99,316.67,11.15,0000 0000 0000 0000 000000
2014-04-22 00:58:14,0.11,1.65,0.00,22.37,28.12,30.81,5.92,31.08,993.18,2034.95,2783.09,2864.01,3110.05,350.30,317.22,11.16,0000 0000 0000 0000 000000
2014-04-22 00:59:14,0.02,1.65,0.00,22.37,28.12,30.81,5.81,31.33,993.18,2034.89,2783.02,2863.99,3110.00,348.85,316.13,11.16,0000 0000 0000 0000 000000
2014-04-22 01:00:14,-0.02,1.65,0.00,22.37,28.12,30.80,6.00,31.29,993.18,2034.92,2782.93,2863.96,3109.99,349.90,317.08,11.17,0000 0000 0000 0000 000000
2014-04-22 01:01:14,0.05,1.65,0.00,22.37,28.12,30.83,5.93,31.21,993.18,2034.93,2782.62,2863.96,3109.98,350.88,318.00,11.17,0000 0000 0000 0000 000000
2014-04-22 01:02:15,0.06,1.65,0.00,22.38,28.12,30.83,5.73,31.21,993.18,2034.94,2782.28,2863.84,3109.91,349.43,316.63,11.18,0000 0000 0000 0000 000000
2014-04-22 01:03:15,0.11,1.65,0.00,22.38,28.12,30.84,5.86,31.08,993.18,2034.93,2782.10,2863.45,3109.52,349.63,317.07,11.19,0000 0000 0000 0000 000000
2014-04-22 01:04:15,0.18,1.65,0.00,22.39,28.12,30.81,6.02,31.25,993.18,2034.89,2782.03,2863.18,3109.21,350.53,317.62,11.19,0000 0000 0000 0000 000000
2014-04-22 01:05:15,0.10,1.65,0.00,22.39,28.12,30.80,6.02,31.33,993.20,2034.84,2781.97,2863.06,3109.07,350.72,317.80,11.20,0000 0000 0000 0000 000000
2014-04-22 01:06:16,0.03,1.65,0.00,22.39,28.12,30.82,6.07,31.33,993.18,2034.88,2781.66,2863.02,3109.03,350.46,317.53,11.20,0000 0000 0000 0000 000000
2014-04-22 01:07:16,0.08,1.65,0.00,22.40,28.12,30.84,5.78,31.17,993.18,2034.91,2781.32,2863.00,3109.00,349.68,317.06,11.21,0000 0000 0000 0000 000000
2014-04-22 01:08:16,0.08,1.65,0.00,22.41,28.12,30.85,5.75,31.21,993.18,2034.88,2781.12,2862.99,3108.98,350.06,316.71,11.21,0000 0000 0000 0000 000000
2014-04-22 01:09:16,0.01,1.65,0.00,22.41,28.12,30.86,5.92,31.38,993.19,2034.86,2781.04,2862.91,3108.74,348.95,316.26,11.22,0000 0000 0000 0000 000000
2014-04-22 01:10:16,0.06,1.65,0.00,22.42,28.12,30.79,5.88,31.17,993.20,2034.87,2780.97,2862.57,3108.38,350.11,316.95,11.23,0000 0000 0000 0000 000000
2014-04-22 01:11:16,0.19,1.66,0.00,22.42,28.12,30.76,5.94,31.04,993.19,2034.84,2780.62,2862.23,3108.14,349.70,316.86,11.23,0000 0000 0000 0000 000000
2014-04-22 01:12:16,0.14,1.66,0.00,22.42,28.12,30.80,5.98,31.29,993.19,2034.71,2780.24,2862.09,3108.05,349.85,316.99,11.24,0000 0000 0000 0000 000000
2014-04-22 01:13:17,0.00,1.66,0.00,22.40,28.12,30.82,5.86,31.25,993.18,2034.73,2780.08,2862.03,3108.01,349.63,316.80,11.24,0000 0000 0000 0000 000000
2014-04-22 01:14:17,0.06,1.66,0.00,22.40,28.12,30.77,5.93,31.17,993.18,2034.70,2780.03,2862.01,3108.00,349.89,317.04,11.25,0000 0000 0000 0000 000000
2014-04-22 01:15:17,0.00,1.66,0.00,22.40,28.12,30.77,5.98,31.38,993.18,2034.78,2780.00,2862.00,3107.93,350.15,317.28,11.26,0000 0000 0000 0000 000000
2014-04-22 01:16:17,0.08,1.66,0.00,22.41,28.12,30.82,5.80,31.29,993.18,2034.88,2779.86,2861.98,3107.83,350.40,317.49,11.26,0000 0000 0000 0000 000000
2014-04-22 01:17:18,0.13,1.66,0.00,22.41,28.12,30.83,5.93,31.33,993.18,2034.88,2779.47,2861.85,3107.47,350.31,317.40,11.27,0000 0000 0000 0000 000000
2014-04-22 01:18:18,0.15,1.66,0.00,22.42,28.12,30.82,5.93,31.29,993.18,2034.82,2779.17,2861.45,3107.21,350.46,317.54,11.27,0000 0000 0000 0000 000000
2014-04-22 01:19:18,0.14,1.66,0.00,22.42,28.12,30.82,5.84,31.29,993.18,2034.77,2779.06,2861.18,3107.08,349.31,316.64,11.28,0000 0000 0000 0000 000000
2014-04-22 01:20:18,0.06,1.66,0.00,22.42,28.12,30.83,5.84,31.25,993.18,2034.85,2779.00,2861.07,3107.03,348.75,315.78,11.28,0000 0000 0000 0000 000000
2014-04-22 01:21:19,0.13,1.66,0.00,22.41,28.12,30.84,6.04,31.46,993.18,2034.92,2778.78,2861.02,3107.00,351.11,317.93,11.29,0000 0000 0000 0000 000000
2014-04-22 01:22:19,0.10,1.66,0.00,22.40,28.12,30.80,5.86,31.13,993.18,2034.92,2778.36,2861.00,3106.93,350.16,317.29,11.30,0000 0000 0000 0000 000000
2014-04-22 01:23:19,0.09,1.66,0.00,22.40,28.12,30.85,5.91,31.17,993.18,2034.90,2778.13,2860.99,3106.72,349.91,317.15,11.30,0000 0000 0000 0000 000000
2014-04-22 01:24:19,0.03,1.66,0.00,22.40,28.12,30.83,5.88,31.29,993.18,2034.82,2778.05,2860.90,3106.33,349.76,316.92,11.31,0000 0000 0000 0000 000000
2014-04-22 01:25:20,0.02,1.66,0.00,22.40,28.12,30.82,5.98,31.08,993.18,2034.82,2777.96,2860.65,3106.12,350.87,317.92,11.31,0000 0000 0000 0000 000000
2014-04-22 01:26:20,0.15,1.66,0.00,22.42,28.12,30.85,5.94,31.29,993.18,2034.85,2777.64,2860.31,3106.04,350.04,317.15,11.32,0000 0000 0000 0000 000000
2014-04-22 01:27:20,0.18,1.67,0.00,22.42,28.12,30.85,5.85,31.25,993.18,2034.86,2777.29,2860.13,3106.01,349.66,316.81,11.33,0000 0000 0000 0000 000000
2014-04-22 01:28:20,0.11,1.67,0.00,22.42,28.12,30.83,6.03,31.38,993.18,2034.89,2777.13,2860.05,3106.00,350.14,316.59,11.33,0000 0000 0000 0000 000000
2014-04-22 01:29:21,0.04,1.67,0.00,22.42,28.12,30.82,5.93,31.17,993.18,2034.91,2777.05,2860.02,3105.99,350.36,317.25,11.34,0000 0000 0000 0000 000000
2014-04-22 01:30:21,0.06,1.67,0.00,22.42,28.12,30.86,5.78,31.33,993.18,2034.93,2776.98,2860.00,3105.75,349.07,316.28,11.34,0000 0000 0000 0000 000000
2014-04-22 01:31:21,0.08,1.67,0.00,22.42,28.12,30.82,6.06,31.71,993.18,2034.92,2776.65,2859.97,3105.35,350.36,317.10,11.35,0000 0000 0000 0000 000000
2014-04-22 01:32:21,0.10,1.67,0.00,22.42,28.12,30.87,5.74,31.29,993.18,2034.91,2776.27,2859.82,3105.15,348.97,316.44,11.35,0000 0000 0000 0000 000000
2014-04-22 01:33:22,0.12,1.67,0.00,22.42,28.12,30.84,5.92,31.50,993.18,2034.91,2776.09,2859.53,3105.05,349.41,316.59,11.36,0000 0000 0000 0000 000000
2014-04-22 01:34:22,0.11,1.67,0.00,22.42,28.12,30.81,5.92,31.21,993.18,2034.92,2776.02,2859.25,3105.02,349.47,316.63,11.37,0000 0000 0000 0000 000000
2014-04-22 01:35:22,0.10,1.67,0.00,22.43,28.12,30.81,5.74,31.25,993.18,2034.93,2776.00,2859.12,3105.00,349.58,316.73,11.37,0000 0000 0000 0000 000000
2014-04-22 01:36:22,0.05,1.67,0.00,22.43,28.12,30.82,5.88,31.21,993.18,2034.94,2775.78,2859.06,3105.00,350.35,317.42,11.38,0000 0000 0000 0000 000000
2014-04-22 01:37:23,0.07,1.67,0.00,22.43,28.12,30.80,5.88,31.25,993.18,2034.97,2775.39,2859.02,3104.97,350.38,317.46,11.38,0000 0000 0000 0000 000000
2014-04-22 01:38:23,0.09,1.67,0.00,22.42,28.12,30.79,6.01,31.33,993.18,2034.96,2775.14,2859.00,3104.77,350.09,317.02,11.39,0000 0000 0000 0000 000000
2014-04-22 01:39:23,0.09,1.67,0.00,22.42,28.12,30.85,5.95,31.33,993.18,2034.97,2775.04,2858.98,3104.36,350.01,317.09,11.40,0000 0000 0000 0000 000000
2014-04-22 01:40:24,0.08,1.67,0.00,22.42,28.12,30.86,5.92,31.21,993.15,2034.98,2775.00,2858.96,3104.13,350.34,317.70,11.40,0000 0000 0000 0000 000000
2014-04-22 01:41:24,0.04,1.67,0.00,22.42,28.12,30.83,5.90,31.33,993.08,2034.98,2774.88,2858.88,3104.06,350.07,317.55,11.41,0000 0000 0000 0000 000000
2014-04-22 01:42:24,0.07,1.67,0.00,22.42,28.12,30.82,6.04,31.33,993.08,2034.98,2774.45,2858.49,3104.01,350.42,317.47,11.41,0000 0000 0000 0000 000000
2014-04-22 01:43:24,0.17,1.67,0.00,22.42,28.12,30.83,5.89,31.08,993.14,2034.97,2774.16,2858.20,3103.94,350.12,317.21,11.42,0000 0000 0000 0000 000000
2014-04-22 01:44:25,0.11,1.67,0.00,22.42,28.12,30.83,5.77,31.25,993.16,2034.96,2774.06,2858.07,3103.81,349.02,316.06,11.43,0000 0000 0000 0000 000000
2014-04-22 01:45:25,0.07,1.67,0.00,22.42,28.12,30.80,5.92,31.29,993.18,2034.96,2773.99,2858.03,3103.49,349.83,316.97,11.43,0000 0000 0000 0000 000000
2014-04-22 01:46:25,0.08,1.68,0.00,22.42,28.12,30.82,5.87,31.21,993.17,2034.98,2773.68,2858.00,3103.19,349.59,316.60,11.44,0000 0000 0000 0000 000000
2014-04-22 01:47:26,0.10,1.68,0.00,22.40,28.12,30.80,5.90,31.25,993.18,2034.98,2773.33,2858.00,3103.08,350.23,317.52,11.44,0000 0000 0000 0000 000000
2014-04-22 01:48:26,0.07,1.68,0.00,22.40,28.12,30.79,5.95,31.33,993.18,2034.97,2773.12,2857.82,3103.03,350.61,317.61,11.45,0000 0000 0000 0000 000000
2014-04-22 01:49:26,0.09,1.68,0.00,22.39,28.12,30.78,5.88,31.21,993.17,2034.98,2773.03,2857.43,3103.00,349.45,316.57,11.45,0000 0000 0000 0000 000000
2014-04-22 01:50:26,0.12,1.68,0.00,22.39,28.12,30.85,5.98,31.17,993.14,2034.95,2772.96,2857.20,3102.94,349.34,316.63,11.46,0000 0000 0000 0000 000000
2014-04-22 01:51:27,0.07,1.68,0.00,22.39,28.12,30.86,5.94,31.25,993.08,2034.96,2772.57,2857.07,3102.68,350.61,317.67,11.47,0000 0000 0000 0000 000000
2014-04-22 01:52:27,0.13,1.68,0.00,22.39,28.12,30.85,5.88,31.29,993.08,2034.96,2772.24,2857.02,3102.35,350.20,317.30,11.47,0000 0000 0000 0000 000000
2014-04-22 01:53:27,0.12,1.68,0.00,22.40,28.12,30.87,5.87,31.25,993.01,2034.97,2772.08,2857.00,3102.16,349.98,317.07,11.48,0000 0000 0000 0000 000000
2014-04-22 01:54:27,0.05,1.68,0.00,22.40,28.12,30.86,5.96,31.00,993.01,2034.97,2772.03,2857.00,3102.06,350.41,317.46,11.48,0000 0000 0000 0000 000000
2014-04-22 01:55:28,0.03,1.68,0.00,22.40,28.12,30.83,5.92,31.33,993.04,2034.98,2771.99,2856.95,3102.02,350.48,317.53,11.49,0000 0000 0000 0000 000000
2014-04-22 01:56:28,0.03,1.68,0.00,22.41,28.12,30.83,5.85,31.04,993.05,2034.98,2771.85,2856.84,3102.00,349.66,316.50,11.50,0000 0000 0000 0000 000000
2014-04-22 01:57:28,0.06,1.68,0.00,22.42,28.12,30.83,5.98,31.08,993.03,2034.99,2771.45,2856.55,3101.98,350.38,317.19,11.50,0000 0000 0000 0000 000000
2014-04-22 01:58:29,0.14,1.68,0.00,22.42,28.12,30.82,5.73,31.21,993.01,2034.99,2771.19,2856.27,3101.86,348.32,315.55,11.51,0000 0000 0000 0000 000000
2014-04-22 01:59:29,0.14,1.68,0.00,22.41,28.12,30.84,5.96,31.04,993.08,2034.97,2771.06,2856.11,3101.49,350.30,317.37,11.51,0000 0000 0000 0000 000000
2014-04-22 02:00:29,0.11,1.68,0.00,22.40,28.11,30.85,5.73,31.21,993.04,2034.97,2770.96,2856.04,3101.23,349.81,316.68,11.52,0000 0000 0000 0000 000000
2014-04-22 02:01:29,0.06,1.68,0.00,22.40,28.11,30.86,5.77,31.21,992.97,2034.97,2770.80,2856.00,3101.09,349.92,317.34,11.52,0000 0000 0000 0000 000000
2014-04-22 02:02:30,0.06,1.68,0.00,22.39,28.11,30.84,5.80,31.29,992.90,2034.95,2770.39,2856.00,3101.03,349.38,316.49,11.53,0000 0000 0000 0000 000000
2014-04-22 02:03:30,0.05,1.68,0.00,22.39,28.11,30.84,5.95,31.21,992.81,2034.95,2770.17,2855.97,3101.01,349.73,316.78,11.54,0000 0000 0000 0000 000000
2014-04-22 02:04:30,0.04,1.68,0.00,22.39,28.12,30.86,5.91,31.17,992.82,2034.96,2770.07,2855.82,3100.98,349.87,316.91,11.54,0000 0000 0000 0000 000000
2014-04-22 02:05:30,0.07,1.68,0.00,22.39,28.11,30.85,5.77,31.21,992.77,2034.96,2770.01,2855.54,3100.84,349.71,316.98,11.55,0000 0000 0000 0000 000000
2014-04-22 02:06:30,0.11,1.69,0.00,22.40,28.11,30.84,5.88,31.17,992.72,2034.94,2769.83,2855.22,3100.40,349.74,316.47,11.55,0000 0000 0000 0000 000000
2014-04-22 02:07:31,0.15,1.69,0.00,22.40,28.12,30.86,5.83,31.08,992.72,2034.91,2769.40,2855.08,3100.16,349.62,316.92,11.56,0000 0000 0000 0000 000000
2014-04-22 02:08:31,0.13,1.69,0.00,22.40,28.12,30.88,6.00,31.04,992.70,2034.93,2769.15,2855.03,3100.05,350.45,317.40,11.57,0000 0000 0000 0000 000000
2014-04-22 02:09:31,0.08,1.69,0.00,22.41,28.12,30.83,5.94,31.00,992.71,2034.95,2769.05,2855.01,3100.02,348.88,315.97,11.57,0000 0000 0000 0000 000000
2014-04-22 02:10:32,0.03,1.69,0.00,22.42,28.12,30.85,5.80,30.96,992.70,2034.94,2768.90,2854.94,3099.96,349.91,316.88,11.58,0000 0000 0000 0000 000000
2014-04-22 02:11:32,0.08,1.69,0.00,22.42,28.12,30.89,5.86,31.13,992.69,2034.96,2768.45,2854.69,3099.85,348.95,315.69,11.58,0000 0000 0000 0000 000000
2014-04-22 02:12:32,0.17,1.69,0.00,22.42,28.12,30.88,6.02,31.08,992.69,2034.93,2768.16,2854.31,3099.45,349.88,316.85,11.59,0000 0000 0000 0000 000000
2014-04-22 02:13:33,0.17,1.69,0.00,22.42,28.12,30.88,5.88,31.13,992.69,2034.93,2768.05,2854.11,3099.18,350.54,317.45,11.60,0000 0000 0000 0000 000000
2014-04-22 02:14:33,0.10,1.69,0.00,22.43,28.11,30.88,5.85,31.29,992.69,2034.94,2767.90,2854.04,3099.07,349.04,316.08,11.60,0000 0000 0000 0000 000000
2014-04-22 02:15:33,0.08,1.69,0.00,22.43,28.12,30.85,5.88,31.13,992.69,2034.96,2767.47,2854.01,3099.01,350.31,317.25,11.61,0000 0000 0000 0000 000000
2014-04-22 02:16:33,0.10,1.69,0.00,22.43,28.12,30.84,5.95,31.33,992.69,2034.97,2767.18,2853.95,3098.99,349.31,316.17,11.61,0000 0000 0000 0000 000000
2014-04-22 02:17:34,0.07,1.69,0.00,22.42,28.12,30.82,5.77,31.04,992.70,2034.98,2767.05,2853.82,3098.87,349.66,316.66,11.62,0000 0000 0000 0000 000000
2014-04-22 02:18:34,0.10,1.69,0.00,22.42,28.12,30.82,5.94,31.17,992.70,2034.99,2766.70,2853.50,3098.52,349.79,316.77,11.62,0000 0000 0000 0000 000000
2014-04-22 02:19:34,0.20,1.70,0.00,22.42,28.12,30.87,6.05,31.21,992.70,2034.99,2766.28,2853.19,3098.19,350.66,317.14,11.63,0000 0000 0000 0000 000000
2014-04-22 02:20:35,0.19,1.70,0.00,22.42,28.12,30.88,6.01,31.04,992.71,2034.99,2766.10,2853.07,3098.08,350.58,318.04,11.64,0000 0000 0000 0000 000000
2014-04-22 02:21:35,0.07,1.70,0.00,22.42,28.12,30.87,5.94,31.08,992.69,2034.98,2765.98,2853.02,3098.03,349.43,316.44,11.64,0000 0000 0000 0000 000000
2014-04-22 02:22:35,0.04,1.70,0.00,22.42,28.12,30.89,5.83,31.21,992.70,2034.98,2765.53,2853.00,3098.00,349.38,316.24,11.65,0000 0000 0000 0000 000000
2014-04-22 02:23:36,0.07,1.70,0.00,22.42,28.12,30.85,5.92,31.00,992.70,2034.99,2765.19,2852.91,3097.90,349.90,316.88,11.65,0000 0000 0000 0000 000000
2014-04-22 02:24:36,0.13,1.70,0.00,22.42,28.12,30.81,5.89,31.08,992.70,2034.99,2765.06,2852.52,3097.49,350.22,316.54,11.66,0000 0000 0000 0000 000000
2014-04-22 02:25:36,0.17,1.70,0.00,22.42,28.12,30.84,6.02,31.21,992.70,2034.99,2764.97,2852.20,3097.18,350.32,316.97,11.67,0000 0000 0000 0000 000000
2014-04-22 02:26:36,0.14,1.70,0.00,22.42,28.12,30.88,5.88,31.04,992.72,2034.99,2764.71,2852.07,3097.06,349.20,316.69,11.67,0000 0000 0000 0000 000000
2014-04-22 02:27:36,0.10,1.70,0.00,22.42,28.12,30.84,5.77,31.00,992.70,2034.97,2764.27,2852.02,3097.02,349.74,316.73,11.68,0000 0000 0000 0000 000000
2014-04-22 02:28:37,0.07,1.70,0.00,22.42,28.12,30.82,5.88,31.08,992.69,2034.97,2764.10,2852.00,3097.00,350.32,317.26,11.68,0000 0000 0000 0000 000000
2014-04-22 02:29:37,0.03,1.70,0.00,22.42,28.12,30.84,5.92,31.33,992.69,2034.98,2764.03,2851.97,3096.89,349.44,316.66,11.69,0000 0000 0000 0000 000000
2014-04-22 02:30:38,0.07,1.70,0.00,22.42,28.12,30.83,5.94,31.38,992.69,2034.98,2764.00,2851.78,3096.46,350.30,317.23,11.69,0000 0000 0000 0000 000000
2014-04-22 02:31:38,0.12,1.70,0.00,22.42,28.11,30.86,5.96,31.46,992.69,2034.99,2763.77,2851.45,3096.19,349.88,316.86,11.70,0000 0000 0000 0000 000000
2014-04-22 02:32:38,0.16,1.70,0.00,22.42,28.11,30.88,5.91,31.54,992.68,2034.98,2763.37,2851.21,3096.07,350.93,317.46,11.71,0000 0000 0000 0000 000000
2014-04-22 02:33:38,0.13,1.70,0.00,22.43,28.12,30.88,5.92,31.29,992.64,2034.99,2763.16,2851.08,3096.03,349.67,316.32,11.71,0000 0000 0000 0000 000000
2014-04-22 02:34:39,0.08,1.70,0.00,22.43,28.12,30.86,5.90,31.17,992.51,2034.99,2763.05,2851.03,3096.00,350.77,317.59,11.72,0000 0000 0000 0000 000000
2014-04-22 02:35:39,0.03,1.70,0.00,22.44,28.11,30.82,5.90,31.25,992.36,2034.98,2763.01,2851.00,3095.99,349.86,316.84,11.72,0000 0000 0000 0000 000000
2014-04-22 02:36:39,0.01,1.70,0.00,22.44,28.12,30.81,6.00,31.13,992.32,2034.98,2762.91,2850.99,3095.92,350.59,317.49,11.73,0000 0000 0000 0000 000000